Location: Andershausen
(51.8462°N, 9.8595°E)
Time: 09:29:04
(UTC+00:00)

Cosmos 2082 Rocket - Pass Details

Date: 18 November 2025
Orbit: 834 x 851 km, 71.0° (Epoch: 11 December)

Event Time Altitude Azimuth Distance (km) Brightness Sun altitude
Rises 17:30:38 0° 327° (NNW) 3,393 5.7 -18.9°
Reaches altitude 10° 17:33:07 10° 324° (NW) 2,455 5.0 -19.3°
Maximum altitude 17:38:37 58° 246° (WSW) 969 2.8 -20.1°
Drops below altitude 10° 17:44:06 10° 169° (S) 2,442 4.5 -21.0°
Sets 17:46:33 0° 165° (SSE) 3,373 5.2 -21.4°
